Nuiqsut, AK

11:02 PM AKDT on September 24, 2017 (GMT -0800)
Nuiqsut

Weather History for PAQT - October, 2011

Change the Weather History Date:

Monday, October 31, 2011

  Actual Average (PAKU) Record (PAKU)
Temperature  
Mean Temperature 10 °F -  
Max Temperature 19 °F 10 °F 37 °F (2002)
Min Temperature -5 °F 1 °F -15 °F (1983)
Degree Days  
Heating Degree Days 56    
Moisture  
Dew Point 11 °F    
Average Humidity 92    
Maximum Humidity 100    
Minimum Humidity 85    
Precipitation  
Precipitation 0.00 in - - ()
Sea Level Pressure  
Sea Level Pressure 29.60 in    
Wind  
Wind Speed 16 mph (SW)    
Max Wind Speed 21 mph    
Max Gust Speed -    
Visibility 4 miles    
Events Snow    
Averages and records for this station are not official NWS values.
T = Trace of Precipitation, MM = Missing Value Source: NWS Daily Summary

Daily Weather History Graph

Daily Weather History Graph

Search for Another Location

Airport or City:

Trip Planner

Search our weather history database for the weather conditions in past years. The results will help you decide how hot, cold, wet, or windy it might be!

Date:

Astronomy

Oct. 31, 2011 Rise Set
Actual Time 10:32 AM AKDT 5:01 PM AKDT
Civil Twilight 9:17 AM AKDT 6:16 PM AKDT
Nautical Twilight 8:02 AM AKDT 7:30 PM AKDT
Astronomical Twilight 6:51 AM AKDT 8:41 PM AKDT
Moon 6:01 PM AKDT (10/31) 7:43 PM AKDT (10/31)
Length of Visible Light 8h 58m
Length of Day
6h 29m
Waxing Crescent, 31% of the Moon is Illuminated
Oct 31
Waxing Crescent
Nov 2
First Quarter
Nov 10
Full
Nov 18
Last Quarter
Nov 24
New

Hourly Weather History & Observations

Time (AKDT) Temp. Windchill Dew Point Humidity Pressure Visibility Wind Dir Wind Speed Gust Speed Precip Events Conditions
12:48 AM 3.2 °F -16.5 °F 1.4 °F 92% 29.57 in 2.0 mi South 17.3 mph - 0.00 in Snow Light Snow
12:53 AM 3.9 °F -16.1 °F 1.0 °F 88% 29.58 in 2.0 mi South 18.4 mph - 0.00 in Snow Light Snow
1:10 AM 5.0 °F -15.2 °F 1.4 °F 85% 29.57 in 3.0 mi South 19.6 mph - 0.00 in Snow Light Snow
1:22 AM 6.8 °F -12.9 °F 3.2 °F 85% 29.57 in 2.5 mi South 19.6 mph - 0.00 in Snow Light Snow
1:53 AM 8.1 °F -11.7 °F 5.0 °F 87% 29.56 in 2.5 mi South 20.7 mph - 0.00 in Snow Light Snow
2:12 AM 8.6 °F -11.0 °F 6.8 °F 92% 29.55 in 2.0 mi South 20.7 mph - 0.00 in Snow Light Snow
2:20 AM 8.6 °F -10.5 °F 6.8 °F 92% 29.55 in 2.5 mi South 19.6 mph - 0.00 in Snow Light Snow
2:28 AM 8.6 °F -10.5 °F 6.8 °F 92% 29.55 in 2.0 mi South 19.6 mph - 0.00 in Snow Light Snow
2:50 AM 10.4 °F -8.2 °F 8.6 °F 92% 29.55 in 1.8 mi South 19.6 mph - 0.00 in Snow Light Snow
2:53 AM 10.0 °F -8.6 °F 8.1 °F 92% 29.56 in 1.8 mi South 19.6 mph - 0.00 in Snow Light Snow
3:36 AM 12.2 °F -5.3 °F 8.6 °F 85% 29.54 in 2.0 mi South 18.4 mph - 0.00 in Snow Light Snow
3:45 AM 12.2 °F -5.3 °F 10.4 °F 92% 29.54 in 1.2 mi South 18.4 mph - 0.00 in Snow Light Snow
3:53 AM 12.9 °F -3.9 °F 10.0 °F 88% 29.55 in 1.5 mi South 17.3 mph - 0.00 in Snow Light Snow
4:19 AM 14.0 °F -3.0 °F 12.2 °F 93% 29.53 in 2.0 mi South 18.4 mph - 0.00 in Snow Light Snow
4:42 AM 15.8 °F -0.2 °F 12.2 °F 86% 29.53 in 3.0 mi SSW 17.3 mph - 0.00 in Snow Light Snow
4:51 AM 15.8 °F 0.3 °F 12.2 °F 86% 29.53 in 2.0 mi SSW 16.1 mph - 0.00 in Snow Light Snow
4:53 AM 15.1 °F -0.1 °F 12.9 °F 91% 29.54 in 2.0 mi South 15.0 mph - 0.00 in Snow Light Snow
5:42 AM 17.6 °F 2.7 °F 15.8 °F 93% 29.53 in 4.0 mi SW 16.1 mph - 0.00 in Snow Light Snow
5:53 AM 18.0 °F 3.6 °F 16.0 °F 92% 29.53 in 2.5 mi SW 15.0 mph - 0.00 in Snow Light Snow
6:16 AM 19.4 °F 5.5 °F 17.6 °F 93% 29.52 in 2.5 mi SW 15.0 mph - 0.00 in Snow Light Snow
6:35 AM 19.4 °F 5.0 °F 17.6 °F 93% 29.53 in 2.5 mi WSW 16.1 mph - 0.00 in Snow Light Snow
6:51 AM 19.4 °F 5.0 °F 17.6 °F 93% 29.53 in 7.0 mi WSW 16.1 mph - 0.00 in Snow Light Snow
6:53 AM 19.9 °F 5.7 °F 18.0 °F 92% 29.54 in 9.0 mi WSW 16.1 mph - 0.00 in   Overcast
7:53 AM 19.9 °F 7.3 °F 18.0 °F 92% 29.55 in 5.0 mi West 12.7 mph - 0.00 in Snow Light Snow
8:53 AM 19.9 °F 8.6 °F 19.0 °F 96% 29.56 in 9.0 mi West 10.4 mph - 0.00 in   Overcast
9:53 AM 19.9 °F 9.3 °F 19.0 °F 96% 29.58 in 4.0 mi West 9.2 mph - 0.00 in Snow Light Snow
10:53 AM 19.9 °F 9.3 °F 18.0 °F 92% 29.60 in 7.0 mi WSW 9.2 mph - 0.00 in   Overcast
11:53 AM 19.9 °F 9.3 °F 19.0 °F 96% 29.61 in 2.5 mi WSW 9.2 mph - 0.00 in Snow Light Snow
12:11 PM 19.4 °F 8.6 °F 17.6 °F 93% 29.61 in 3.0 mi WSW 9.2 mph - 0.00 in Snow Light Snow
12:33 PM 19.4 °F 9.5 °F 19.4 °F 100% 29.61 in 1.8 mi WSW 8.1 mph - 0.00 in Snow Light Snow
12:40 PM 19.4 °F 9.5 °F 19.4 °F 100% 29.61 in 1.0 mi WSW 8.1 mph - 0.00 in Snow Light Snow
12:49 PM 19.4 °F 9.5 °F 17.6 °F 93% 29.62 in 3.0 mi WSW 8.1 mph - 0.00 in Snow Light Snow
12:53 PM 19.0 °F 9.0 °F 18.0 °F 96% 29.62 in 5.0 mi WSW 8.1 mph - 0.00 in Snow Light Snow
1:31 PM 19.4 °F 8.6 °F 17.6 °F 93% 29.62 in 1.8 mi WSW 9.2 mph - 0.00 in Snow Light Snow
1:53 PM 19.0 °F 8.2 °F 18.0 °F 96% 29.63 in 1.0 mi WSW 9.2 mph - 0.00 in Snow Light Snow
2:19 PM 19.4 °F 6.0 °F 17.6 °F 93% 29.62 in 0.8 mi WSW 13.8 mph - 0.00 in Snow Light Snow
2:48 PM 19.4 °F 4.1 °F 17.6 °F 93% 29.63 in 2.0 mi West 18.4 mph - 0.00 in Snow Light Snow
2:49 PM 19.4 °F 4.5 °F 17.6 °F 93% 29.63 in 3.0 mi West 17.3 mph - 0.00 in Snow Light Snow
2:53 PM 19.9 °F 5.7 °F 18.0 °F 92% 29.64 in 5.0 mi West 16.1 mph - 0.00 in Snow Light Snow
3:53 PM 18.0 °F 3.1 °F 16.0 °F 92% 29.65 in 10.0 mi West 16.1 mph - 0.00 in   Overcast
4:53 PM 17.1 °F 3.0 °F 14.0 °F 88% 29.67 in 10.0 mi West 13.8 mph - N/A   Overcast
5:53 PM 9.0 °F -7.3 °F 7.0 °F 92% 29.69 in 10.0 mi West 13.8 mph - N/A   Clear
6:53 PM 3.0 °F -13.3 °F 1.9 °F 95% 29.70 in 10.0 mi West 11.5 mph - N/A   Clear
7:06 PM 5.0 °F -10.8 °F 3.2 °F 92% 29.70 in 8.0 mi West 11.5 mph - N/A   Partly Cloudy
7:53 PM 1.0 °F -14.9 °F -0.9 °F 91% 29.72 in 10.0 mi West 10.4 mph - N/A   Clear
8:53 PM -0.0 °F -17.1 °F -2.0 °F 91% 29.73 in 10.0 mi WSW 11.5 mph - N/A   Clear
9:53 PM 1.0 °F -17.3 °F -2.0 °F 87% 29.73 in 7.0 mi WSW 13.8 mph - N/A   Clear
10:53 PM -0.9 °F -18.3 °F -2.9 °F 91% 29.74 in 10.0 mi WSW 11.5 mph - N/A   Clear
11:53 PM -5.1 °F -21.5 °F -7.1 °F 91% 29.75 in 3.0 mi South 9.2 mph - N/A   Partly Cloudy